{"data":{"norad_id":62871,"intl_designator":"2025-022T","name":"STARLINK-32814","alt_names":[],"object_type":"PAYLOAD","status":"ACTIVE","operator":null,"country":"US","launch_date":"2025-02-01","launch_site_code":"AFWTR","launch_vehicle":null,"mission":null,"orbit_class":"UNKNOWN","rcs_meters":null,"size_class":null,"mass_kg":null,"dimensions":null,"purposes":["comms"],"wikipedia_slug":null,"has_3d_model":false,"image_url":null,"decayed_at":null,"tle_current":{"epoch":"2026-09-20T19:46:35.317632Z","epoch_age_seconds":140154,"freshness":"FRESH","line1":"1 62871U 25022T   26263.82401988  .00015677  00000+0  47424-3 0  9993","line2":"2 62871  53.1582 299.8661 0000857  77.6109 282.4990 15.34393331 91820","mean_motion":15.34393331,"eccentricity":8.57e-5,"inclination_deg":53.1582,"raan_deg":299.8661,"arg_perigee_deg":77.6109,"mean_anomaly_deg":282.499,"bstar":0.00047424,"rev_number":9182,"period_min":93.848165975899,"perigee_km":462.13680024502,"apogee_km":463.30932365964,"semimajor_km":6840.8600619523,"source":"CELESTRAK","updated_at":"2026-09-22T09:00:49.700440Z"}}}